Location: LDNL
(36.4545°S, 141.6685°E)
Time: 20:11:36
(UTC+10:00)

A-11 Canister half - Pass Details

Date: 28 January 2022
Orbit: 1527 x 1682 km, 47.3° (Epoch: 20 May)

Event Time Altitude Azimuth Distance (km) Brightness Sun altitude
Rises 22:54:34 0° 319° (NW) 4,918 11.6 -22.0°
Reaches altitude 10° 22:57:44 10° 322° (NW) 3,939 11.0 -22.5°
Maximum altitude 23:07:46 67° 41° (NE) 1,802 9.0 -23.8°
Drops below altitude 10° 23:17:43 10° 120° (ESE) 3,916 11.0 -25.1°
Sets 23:20:51 0° 122° (ESE) 4,888 11.6 -25.5°
